sat.trackr.live / text

‹ back to catalog

STARLINK-11665 [DTC]

NORAD 63549 · 2025-075B

PAYLOAD ACTIVE UNKNOWN

§ Identity

Operator
Country
US
Launch date
2025-04-13
Launch site
AFETR
Launch vehicle
Mass (kg)
RCS (m²)

Purposes: comms

External: N2YO · Heavens-Above · Gunter

§ Orbital elements

Epoch: 2026-05-25T03:27:55.945728Z

Period
91.67 min
Inclination
43.0014°
Eccentricity
0.0002390
Mean motion
15.70921100 rev/d
Perigee alt
354.7 km
Apogee alt
357.9 km
Semi-major
6,734.4 km
B*
1.6136e-3
RAAN
52.8980°
Arg perigee
269.3383°
Mean anomaly
90.7211°
Rev number
6,527

§ Raw data

STARLINK-11665 [DTC]1 63549U 25075B   26145.14439752  .00212718  00000+0  16136-2 0  99982 63549  43.0014  52.8980 0002390 269.3383  90.7211 15.70921100 65277

JSON: /api/v1/satellites/63549 · /tle

For live sub-satellite position, see the globe view (requires WebGL).

§ Visibility from observer

Set your observer location to see the next 7 days of passes ≥ 10°. The values pass through the URL so the page stays shareable.

No JS? Fill the form by hand. The geolocation button needs JavaScript.